Weather History for KRIL - February, 2014

Change the Weather History Date:

Wednesday, February 26, 2014

  Actual Average Record
Temperature  
Mean Temperature 43 °F 34 °F  
Max Temperature 56 °F 47 °F 69 °F (1986)
Min Temperature 30 °F 22 °F -2 °F (1952)
Degree Days  
Heating Degree Days 22 31  
Month to date heating degree days 873 902  
Since 1 July heating degree days 5164 4937  
Cooling Degree Days 0 0  
Month to date cooling degree days 0 0  
Year to date cooling degree days 0 0  
Moisture  
Dew Point 26 °F    
Average Humidity 52    
Maximum Humidity 78    
Minimum Humidity 26    
Precipitation  
Precipitation 0.00 in 0.03 in 0.40 in (1955)
Month to date precipitation 0.35 0.70  
Year to date precipitation 1.34 1.51  
Sea Level Pressure  
Sea Level Pressure 29.97 in    
Wind  
Wind Speed 3 mph (SSE)    
Max Wind Speed 13 mph    
Max Gust Speed 16 mph    
Visibility 10 miles    
Events      
T = Trace of Precipitation, MM = Missing Value Source: NWS Daily Summary

Daily Weather History Graph

Daily Weather History Graph

Search for Another Location

Airport or City:

Trip Planner

Search our weather history database for the weather conditions in past years. The results will help you decide how hot, cold, wet, or windy it might be!

Date:

Astronomy

Feb. 26, 2014 Rise Set
Actual Time 6:48 AM MST 5:59 PM MST
Civil Twilight 6:21 AM MST 6:27 PM MST
Nautical Twilight 5:49 AM MST 6:58 PM MST
Astronomical Twilight 5:18 AM MST 7:29 PM MST
Moon 4:36 AM MST (2/26) 3:18 PM MST (2/26)
Length of Visible Light 12h 06m
Length of Day
11h 11m
Waning Crescent, 9% of the Moon is Illuminated
Feb 26
Waning Crescent
Mar 1
New
Mar 8
First Quarter
Mar 16
Full
Mar 23
Last Quarter

Hourly Weather History & Observations

Time (MST) Temp. Windchill Dew Point Humidity Pressure Visibility Wind Dir Wind Speed Gust Speed Precip Events Conditions
12:53 AM 37.9 °F 30.0 °F 25.0 °F 60% 30.00 in 10.0 mi WNW 12.7 mph - N/A   Overcast
1:53 AM 37.0 °F - 25.0 °F 62% 30.00 in 10.0 mi Calm Calm - N/A   Overcast
2:53 AM 36.0 °F - 27.0 °F 70% 29.99 in 10.0 mi Calm Calm - N/A   Overcast
3:53 AM 36.0 °F - 26.1 °F 67% 29.99 in 10.0 mi Calm Calm - N/A   Overcast
4:53 AM 32.0 °F 28.7 °F 26.1 °F 79% 30.01 in 10.0 mi South 3.5 mph - N/A   Scattered Clouds
5:53 AM 30.9 °F - 25.0 °F 79% 30.04 in 10.0 mi Calm Calm - N/A   Scattered Clouds
8:53 AM 36.0 °F - 27.0 °F 70% 30.06 in 10.0 mi Calm Calm - N/A   Clear
9:53 AM 41.0 °F - 25.0 °F 53% 30.04 in 10.0 mi Calm Calm - N/A   Clear
10:53 AM 46.0 °F - 25.0 °F 44% 30.03 in 10.0 mi Calm Calm - N/A   Clear
11:53 AM 46.9 °F - 24.1 °F 41% 30.01 in 10.0 mi Calm Calm - N/A   Clear
12:53 PM 50.0 °F - 24.1 °F 36% 29.96 in 10.0 mi South 4.6 mph - N/A   Clear
1:53 PM 53.1 °F - 24.1 °F 32% 29.92 in 10.0 mi South 5.8 mph - N/A   Clear
2:53 PM 54.0 °F - 24.1 °F 31% 29.91 in 10.0 mi Variable 3.5 mph - N/A   Clear
3:53 PM 55.0 °F - 25.0 °F 31% 29.89 in 10.0 mi WSW 4.6 mph - N/A   Scattered Clouds
4:53 PM 55.0 °F - 21.9 °F 28% 29.91 in 10.0 mi NNE 4.6 mph - N/A   Clear
5:53 PM 50.0 °F - 27.0 °F 41% 29.92 in 10.0 mi SW 4.6 mph - N/A   Clear
6:53 PM 41.0 °F 34.7 °F 28.0 °F 60% 29.96 in 10.0 mi SE 10.4 mph - N/A   Clear
7:53 PM 39.0 °F 34.8 °F 27.0 °F 62% 29.96 in 10.0 mi SE 5.8 mph - N/A   Partly Cloudy
8:53 PM 39.9 °F 36.7 °F 25.0 °F 55% 29.96 in 10.0 mi East 4.6 mph - N/A   Partly Cloudy
9:53 PM 37.9 °F - 28.9 °F 70% 29.95 in 10.0 mi Calm Calm - N/A   Overcast
10:53 PM 37.9 °F 34.4 °F 28.0 °F 68% 29.93 in 10.0 mi NE 4.6 mph - N/A   Overcast
11:53 PM 36.0 °F 31.1 °F 27.0 °F 70% 29.91 in 10.0 mi ESE 5.8 mph - N/A   Partly Cloudy